M I D A S
Marine Information and Data Acquisition System
Tripno 1242 of the Zeeleeuw from 2007-03-29 05:00:32 to 2007-03-29 07:51:53
Back to CruiseResearch ActivitiesStationsMapUnderway DataData graphs

EquipmentUnitsComments
TimeDGPSUTC
LatitudeDGPSDM.mWGS84
LongitudeDGPSDM.mWGS84
SpeedMeteo Stationm/sRelative wind speed
DirectionMeteo StationdegRelative wind direction
TemperatureMeteo Stationdeg CelciusAir temperature
PressureMeteo StationPaAtmospheric pressure
HumidityMeteo Station%Relative humidity
Missing or incorrect values are displayed as -999
Metereological data collected by the RV Zeeleeuw from 2007-03-29 05:01:44 to 2007-03-29 07:56:21
Time Latitude Longitude Speed Direction Temperature Pressure Humidity
2007-03-29 05:02 51°13.614 2°56.049 -999 -999 -999 -999 -999
2007-03-29 05:03 51°13.64 2°55.953 -999 -999 -999 -999 -999
2007-03-29 05:04 51°13.682 2°55.849 -999 -999 -999 -999 -999
2007-03-29 05:05 51°13.721 2°55.759 -999 -999 -999 -999 -999
2007-03-29 05:06 51°13.732 2°55.733 -999 -999 -999 -999 -999
2007-03-29 05:07 51°13.733 2°55.712 -999 -999 -999 -999 -999
2007-03-29 05:08 51°13.735 2°55.71 -999 -999 -999 -999 -999
2007-03-29 05:09 51°13.732 2°55.702 -999 -999 -999 -999 -999
2007-03-29 05:10 51°13.767 2°55.681 -999 -999 -999 -999 -999
2007-03-29 05:11 51°13.863 2°55.617 -999 -999 -999 -999 -999
2007-03-29 05:12 51°13.979 2°55.544 -999 -999 -999 -999 -999
2007-03-29 05:13 51°14.097 2°55.465 -999 -999 -999 -999 -999
2007-03-29 05:14 51°14.214 2°55.359 -999 -999 -999 -999 -999
2007-03-29 05:15 51°14.321 2°55.17 -999 -999 -999 -999 -999
2007-03-29 05:16 51°14.429 2°54.899 -999 -999 -999 -999 -999
2007-03-29 05:17 51°14.546 2°54.609 -999 -999 -999 -999 -999
2007-03-29 05:18 51°14.728 2°54.44 -999 -999 -999 -999 -999
2007-03-29 05:19 51°14.912 2°54.276 -999 -999 -999 -999 -999
2007-03-29 05:20 51°15.025 2°53.975 -999 -999 -999 -999 -999
2007-03-29 05:21 51°15.121 2°53.661 -999 -999 -999 -999 -999
2007-03-29 05:22 51°15.187 2°53.315 -999 -999 -999 -999 -999
2007-03-29 05:23 51°15.237 2°52.959 -999 -999 -999 -999 -999
2007-03-29 05:24 51°15.283 2°52.601 -999 -999 -999 -999 -999
2007-03-29 05:25 51°15.328 2°52.244 -999 -999 -999 -999 -999
2007-03-29 05:26 51°15.375 2°51.889 -999 -999 -999 -999 -999
2007-03-29 05:27 51°15.421 2°51.535 -999 -999 -999 -999 -999
2007-03-29 05:28 51°15.469 2°51.184 -999 -999 -999 -999 -999
2007-03-29 05:29 51°15.518 2°50.836 -999 -999 -999 -999 -999
2007-03-29 05:30 51°15.566 2°50.487 -999 -999 -999 -999 -999
2007-03-29 05:31 51°15.614 2°50.139 -999 -999 -999 -999 -999
2007-03-29 05:32 51°15.661 2°49.79 -999 -999 -999 -999 -999
2007-03-29 05:33 51°15.711 2°49.443 -999 -999 -999 -999 -999
2007-03-29 05:34 51°15.759 2°49.099 -999 -999 -999 -999 -999
2007-03-29 05:35 51°15.806 2°48.751 -999 -999 -999 -999 -999
2007-03-29 05:36 51°15.854 2°48.399 -999 -999 -999 -999 -999
2007-03-29 05:37 51°15.903 2°48.045 -999 -999 -999 -999 -999
2007-03-29 05:38 51°15.951 2°47.69 -999 -999 -999 -999 -999
2007-03-29 05:39 51°16.002 2°47.335 -999 -999 -999 -999 -999
2007-03-29 05:40 51°16.055 2°46.983 -999 -999 -999 -999 -999
2007-03-29 05:41 51°16.102 2°46.637 -999 -999 -999 -999 -999
2007-03-29 05:42 51°16.151 2°46.297 -999 -999 -999 -999 -999
2007-03-29 05:43 51°16.198 2°45.958 -999 -999 -999 -999 -999
2007-03-29 05:44 51°16.271 2°45.638 -999 -999 -999 -999 -999
2007-03-29 05:45 51°16.372 2°45.336 -999 -999 -999 -999 -999
2007-03-29 05:46 51°16.482 2°45.04 -999 -999 -999 -999 -999
2007-03-29 05:47 51°16.6 2°44.753 -999 -999 -999 -999 -999
2007-03-29 05:48 51°16.717 2°44.458 -999 -999 -999 -999 -999
2007-03-29 05:49 51°16.833 2°44.16 -999 -999 -999 -999 -999
2007-03-29 05:50 51°16.948 2°43.862 -999 -999 -999 -999 -999
2007-03-29 05:51 51°17.066 2°43.564 -999 -999 -999 -999 -999
2007-03-29 05:52 51°17.185 2°43.268 -999 -999 -999 -999 -999
2007-03-29 05:53 51°17.305 2°42.975 -999 -999 -999 -999 -999
2007-03-29 05:54 51°17.426 2°42.683 -999 -999 -999 -999 -999
2007-03-29 05:55 51°17.549 2°42.384 -999 -999 -999 -999 -999
2007-03-29 05:56 51°17.67 2°42.088 -999 -999 -999 -999 -999
2007-03-29 05:57 51°17.786 2°41.789 -999 -999 -999 -999 -999
2007-03-29 05:58 51°17.903 2°41.49 -999 -999 -999 -999 -999
2007-03-29 05:59 51°18.019 2°41.199 -999 -999 -999 -999 -999
2007-03-29 06:00 51°18.138 2°40.908 -999 -999 -999 -999 -999
2007-03-29 06:01 51°18.26 2°40.616 -999 -999 -999 -999 -999
2007-03-29 06:02 51°18.381 2°40.321 -999 -999 -999 -999 -999
2007-03-29 06:03 51°18.504 2°40.029 -999 -999 -999 -999 -999
2007-03-29 06:04 51°18.626 2°39.738 -999 -999 -999 -999 -999
2007-03-29 06:05 51°18.747 2°39.446 -999 -999 -999 -999 -999
2007-03-29 06:06 51°18.866 2°39.152 -999 -999 -999 -999 -999
2007-03-29 06:07 51°18.981 2°38.859 -999 -999 -999 -999 -999
2007-03-29 06:08 51°19.097 2°38.566 -999 -999 -999 -999 -999
2007-03-29 06:09 51°19.219 2°38.282 -999 -999 -999 -999 -999
2007-03-29 06:10 51°19.346 2°38.002 -999 -999 -999 -999 -999
2007-03-29 06:11 51°19.477 2°37.728 -999 -999 -999 -999 -999
2007-03-29 06:12 51°19.607 2°37.451 -999 -999 -999 -999 -999
2007-03-29 06:13 51°19.741 2°37.178 -999 -999 -999 -999 -999
2007-03-29 06:14 51°19.84 2°36.987 -999 -999 -999 -999 -999
2007-03-29 06:15 51°19.904 2°36.931 -999 -999 -999 -999 -999
2007-03-29 06:16 51°19.937 2°36.896 -999 -999 -999 -999 -999
2007-03-29 06:17 51°19.954 2°36.869 -999 -999 -999 -999 -999
2007-03-29 06:18 51°19.964 2°36.85 -999 -999 -999 -999 -999
2007-03-29 06:19 51°19.968 2°36.836 -999 -999 -999 -999 -999
2007-03-29 06:20 51°19.967 2°36.826 -999 -999 -999 -999 -999
2007-03-29 06:21 51°19.964 2°36.819 -999 -999 -999 -999 -999
2007-03-29 06:22 51°19.958 2°36.817 -999 -999 -999 -999 -999
2007-03-29 06:23 51°19.951 2°36.818 -999 -999 -999 -999 -999
2007-03-29 06:24 51°19.943 2°36.82 -999 -999 -999 -999 -999
2007-03-29 06:25 51°19.933 2°36.824 -999 -999 -999 -999 -999
2007-03-29 06:26 51°19.923 2°36.827 -999 -999 -999 -999 -999
2007-03-29 06:27 51°19.913 2°36.83 -999 -999 -999 -999 -999
2007-03-29 06:28 51°19.902 2°36.832 -999 -999 -999 -999 -999
2007-03-29 06:29 51°19.913 2°36.836 -999 -999 -999 -999 -999
2007-03-29 06:30 51°19.986 2°36.827 -999 -999 -999 -999 -999
2007-03-29 06:31 51°20.038 2°36.819 -999 -999 -999 -999 -999
2007-03-29 06:32 51°20.069 2°36.804 -999 -999 -999 -999 -999
2007-03-29 06:33 51°20.087 2°36.791 -999 -999 -999 -999 -999
2007-03-29 06:34 51°20.099 2°36.781 -999 -999 -999 -999 -999
2007-03-29 06:35 51°20.103 2°36.773 -999 -999 -999 -999 -999
2007-03-29 06:36 51°20.103 2°36.769 -999 -999 -999 -999 -999
2007-03-29 06:37 51°20.099 2°36.769 -999 -999 -999 -999 -999
2007-03-29 06:38 51°20.094 2°36.77 -999 -999 -999 -999 -999
2007-03-29 06:39 51°20.087 2°36.774 -999 -999 -999 -999 -999
2007-03-29 06:40 51°20.079 2°36.78 -999 -999 -999 -999 -999
2007-03-29 06:41 51°20.085 2°36.777 -999 -999 -999 -999 -999
2007-03-29 06:42 51°20.095 2°36.707 -999 -999 -999 -999 -999
2007-03-29 06:43 51°20.043 2°36.65 -999 -999 -999 -999 -999
2007-03-29 06:44 51°19.974 2°36.725 -999 -999 -999 -999 -999
2007-03-29 06:45 51°19.853 2°36.949 -999 -999 -999 -999 -999
2007-03-29 06:46 51°19.735 2°37.255 -999 -999 -999 -999 -999
2007-03-29 06:47 51°19.616 2°37.565 -999 -999 -999 -999 -999
2007-03-29 06:48 51°19.495 2°37.876 -999 -999 -999 -999 -999
2007-03-29 06:49 51°19.372 2°38.183 -999 -999 -999 -999 -999
2007-03-29 06:50 51°19.252 2°38.491 -999 -999 -999 -999 -999
2007-03-29 06:51 51°19.12 2°38.788 -999 -999 -999 -999 -999
2007-03-29 06:52 51°18.981 2°39.077 -999 -999 -999 -999 -999
2007-03-29 06:53 51°18.845 2°39.372 -999 -999 -999 -999 -999
2007-03-29 06:54 51°18.716 2°39.672 -999 -999 -999 -999 -999
2007-03-29 06:55 51°18.588 2°39.97 -999 -999 -999 -999 -999
2007-03-29 06:56 51°18.457 2°40.27 -999 -999 -999 -999 -999
2007-03-29 06:57 51°18.331 2°40.575 -999 -999 -999 -999 -999
2007-03-29 06:58 51°18.21 2°40.882 -999 -999 -999 -999 -999
2007-03-29 06:59 51°18.081 2°41.187 -999 -999 -999 -999 -999
2007-03-29 07:00 51°17.955 2°41.491 -999 -999 -999 -999 -999
2007-03-29 07:01 51°17.828 2°41.8 -999 -999 -999 -999 -999
2007-03-29 07:02 51°17.698 2°42.104 -999 -999 -999 -999 -999
2007-03-29 07:03 51°17.567 2°42.408 -999 -999 -999 -999 -999
2007-03-29 07:04 51°17.443 2°42.716 -999 -999 -999 -999 -999
2007-03-29 07:05 51°17.32 2°43.025 -999 -999 -999 -999 -999
2007-03-29 07:06 51°17.196 2°43.335 -999 -999 -999 -999 -999
2007-03-29 07:07 51°17.073 2°43.641 -999 -999 -999 -999 -999
2007-03-29 07:08 51°16.949 2°43.943 -999 -999 -999 -999 -999
2007-03-29 07:09 51°16.824 2°44.249 -999 -999 -999 -999 -999
2007-03-29 07:10 51°16.695 2°44.553 -999 -999 -999 -999 -999
2007-03-29 07:11 51°16.568 2°44.856 -999 -999 -999 -999 -999
2007-03-29 07:12 51°16.458 2°45.174 -999 -999 -999 -999 -999
2007-03-29 07:13 51°16.351 2°45.496 -999 -999 -999 -999 -999
2007-03-29 07:14 51°16.243 2°45.82 -999 -999 -999 -999 -999
2007-03-29 07:15 51°16.151 2°46.16 -999 -999 -999 -999 -999
2007-03-29 07:16 51°16.126 2°46.52 -999 -999 -999 -999 -999
2007-03-29 07:17 51°16.107 2°46.888 -999 -999 -999 -999 -999
2007-03-29 07:18 51°16.064 2°47.246 -999 -999 -999 -999 -999
2007-03-29 07:19 51°16.017 2°47.607 -999 -999 -999 -999 -999
2007-03-29 07:20 51°15.971 2°47.964 -999 -999 -999 -999 -999
2007-03-29 07:21 51°15.917 2°48.32 -999 -999 -999 -999 -999
2007-03-29 07:22 51°15.863 2°48.68 -999 -999 -999 -999 -999
2007-03-29 07:23 51°15.811 2°49.036 -999 -999 -999 -999 -999
2007-03-29 07:24 51°15.759 2°49.392 -999 -999 -999 -999 -999
2007-03-29 07:25 51°15.707 2°49.751 -999 -999 -999 -999 -999
2007-03-29 07:26 51°15.655 2°50.112 -999 -999 -999 -999 -999
2007-03-29 07:27 51°15.607 2°50.475 -999 -999 -999 -999 -999
2007-03-29 07:28 51°15.543 2°50.829 -999 -999 -999 -999 -999
2007-03-29 07:29 51°15.482 2°51.18 -999 -999 -999 -999 -999
2007-03-29 07:30 51°15.394 2°51.516 -999 -999 -999 -999 -999
2007-03-29 07:31 51°15.3 2°51.843 -999 -999 -999 -999 -999
2007-03-29 07:32 51°15.208 2°52.173 -999 -999 -999 -999 -999
2007-03-29 07:33 51°15.115 2°52.502 -999 -999 -999 -999 -999
2007-03-29 07:34 51°15.022 2°52.833 -999 -999 -999 -999 -999
2007-03-29 07:35 51°14.93 2°53.163 -999 -999 -999 -999 -999
2007-03-29 07:36 51°14.84 2°53.486 -999 -999 -999 -999 -999
2007-03-29 07:37 51°14.752 2°53.819 -999 -999 -999 -999 -999
2007-03-29 07:38 51°14.68 2°54.161 -999 -999 -999 -999 -999
2007-03-29 07:39 51°14.58 2°54.482 -999 -999 -999 -999 -999
2007-03-29 07:40 51°14.474 2°54.799 -999 -999 -999 -999 -999
2007-03-29 07:41 51°14.351 2°55.101 -999 -999 -999 -999 -999
2007-03-29 07:42 51°14.211 2°55.34 -999 -999 -999 -999 -999
2007-03-29 07:43 51°14.076 2°55.456 -999 -999 -999 -999 -999
2007-03-29 07:44 51°13.952 2°55.544 -999 -999 -999 -999 -999
2007-03-29 07:45 51°13.832 2°55.631 -999 -999 -999 -999 -999
2007-03-29 07:46 51°13.736 2°55.74 -999 -999 -999 -999 -999
2007-03-29 07:47 51°13.679 2°55.849 -999 -999 -999 -999 -999
2007-03-29 07:48 51°13.635 2°55.947 -999 -999 -999 -999 -999
2007-03-29 07:49 51°13.609 2°56.032 -999 -999 -999 -999 -999
2007-03-29 07:50 51°13.602 2°56.087 -999 -999 -999 -999 -999
2007-03-29 07:51 51°13.6 2°56.096 -999 -999 -999 -999 -999
2007-03-29 07:52 51°13.6 2°56.1 -999 -999 -999 -999 -999
2007-03-29 07:53 51°13.601 2°56.1 -999 -999 -999 -999 -999
2007-03-29 07:54 51°13.601 2°56.1 -999 -999 -999 -999 -999
2007-03-29 07:55 51°13.601 2°56.1 -999 -999 -999 -999 -999